Other Public Products
Issued by NWS Charleston, SC

Current Version | Previous Version | Graphics & Text | Print | Product List | Glossary On
Versions: 1 2 3 4 5 6 7 8 9 10 11 12 13 14 15 16 17 18 19 20 21 22 23 24 25 26 27 28 29 30 31 32 33 34 35 36 37 38 39 40 41 42 43 44 45 46 47 48 49 50
000
FPUS82 KCHS 210112
OPUCHS

TEST...KCHS/KSAV Gateway Observations...TEST
National Weather Service Charleston SC
900 PM EDT SUN MAY 20 2018

NOTE: "fair" indicates few or no clouds below 12,000 feet with no
significant weather and/or obstructions to visibility.

SCZ050-WAZ558-NCZ071-TXZ119-213-PAZ071-DCZ001-FLZ074-172-MI076-
NYZ176-178-MAZ016-IL014-TNZ027-NJZ106-GAZ044-MD014-210200-

...Gateway Observations for Charleston International...

CITY           SKY/WX    TMP DP  RH WIND       PRES   REMARKS
Chas Airport   MOCLDY    75  70  84 W3        30.15S
Seattle        PTSUNNY   66  50  56 S8        30.03F
Charlotte      LGT RAIN  68  67  96 SW5       30.15S
Dallas DFW     CLOUDY    77  65  66 S5        29.97F
Dallas Love    CLOUDY    78  64  61 SE5       29.98S
Philladelphia  MOCLDY    76  62  62 NW6       30.02R
Wash National  MOCLDY    81  66  60 SW6       30.02R
Baltimore      FAIR      79  64  60 VRB5      30.01R
Miami          CLOUDY    74  72  93 SE7       30.05F
Detroit        CLOUDY    59  51  75 E3        30.18S
Newark         MOCLDY    73  58  59 NW12      30.02R
Laguardia      MOCLDY    71  57  61 NW13      30.00R
J F K          MOCLDY    73  59  61 NW15      30.01R
Boston Logan   MOCLDY    70  57  63 N6        29.94R
Ft. Lauderdale CLOUDY    79  74  84 SE15      30.04R
Chicago O`Hare CLOUDY    48  41  76 NE7       30.18R
Chicago Midway CLOUDY    49  43  80 N5        30.19R
Houston Bush   TSTM      69  69 100 E12       30.03S FOG
Houston Hobby  TSTM      72  71  97 N21       30.01R
Nashville      LGT RAIN  70  67  90 N12       30.12R
Atlanta        MOCLDY    70  69  97 SE7       30.12F

$$

GAZ044-118-TXZ119-213-NCZ071-DCZ001-MDZ014-506-PAZ021-071-NJZ106-
NYZ176-178-MAZ106-OHZ011-021-055-MIZ076-KYZ091-ILZ014-INZ047-
MNZ060-ONZ431-210200-

...Gateway Observations for Savannah International...

CITY           SKY/WX    TMP DP  RH WIND       PRES   REMARKS
Savannah Arpt  FAIR      72  70  93 CALM      30.15R
Atlanta        MOCLDY    70  69  97 SE7       30.12F
Charlotte      LGT RAIN  68  67  96 SW5       30.15S
Dallas DFW     CLOUDY    77  65  66 S5        29.97F
Houston Bush   TSTM      69  69 100 E12       30.03S FOG
Wash National  MOCLDY    81  66  60 SW6       30.02R
Wash Dulles    MOCLDY    74  66  76 W3        30.04R
Baltimore      FAIR      79  64  60 VRB5      30.01R
Philadelphia   MOCLDY    76  62  62 NW6       30.02R
Newark         MOCLDY    73  58  59 NW12      30.02R
Laguardia      MOCLDY    71  57  61 NW13      30.00R
J F K          MOCLDY    73  59  61 NW15      30.01R
Boston         MOCLDY    70  57  63 N6        29.94R
Pittsburg      FAIR      68  57  68 N3        30.12R
Akron          FAIR      64  54  69 NW8       30.14S
Cleveland      FAIR      57  51  80 N9        30.19R
Cincinnati     MOCLDY    73  64  73 SE8       30.09R
Columbus       FAIR      72  62  70 MISG      30.09S
Detroit        CLOUDY    59  51  75 E3        30.18S
Chicago O`Hare CLOUDY    48  41  76 NE7       30.18R
Minneapolis    MOCLDY    70  34  26 SE10      30.12F
Indianapolis   MOCLDY    76  65  68 NE9       30.06S
Toronto Canada PTCLDY    57  43  58 N15       30.13R

$$




USA.gov is the U.S. government's official web portal to all federal, state and local government web resources and services.